Regional Weather Roundup
Issued by NWS Mobile, AL

Home | Current Version | Previous Version | Text Only | Print | Product List | Glossary On
Versions: 1 2 3 4 5 6 7 8 9 10 11 12 13 14 15 16 17 18 19 20 21 22 23 24 25 26 27 28 29 30 31 32 33 34 35 36 37 38 39 40 41 42 43 44 45 46 47 48 49 50
000
ASUS44 KMOB 310610
RWRMOB
REGIONAL WEATHER ROUNDUP
NATIONAL WEATHER SERVICE MOBILE AL
100 AM CDT SUN AUG 31 2014

NOTE: "FAIR" INDICATES FEW OR NO CLOUDS BELOW 12,000 FEET WITH NO
      SIGNIFICANT WEATHER AND/OR OBSTRUCTIONS TO VISIBILITY.

  * THESE STATIONS ARE PART OF THE UNIVERSITY OF SOUTH ALABAMA
    MESONET AND ARE NOT UNDER NWS OR FAA QUALITY CONTROL.

ALZ061>064-310700-
COASTAL ALABAMA

CITY           SKY/WX    TMP DP  RH WIND       PRES   REMARKS
MOBILE REG APT FAIR      75  74  96 NE5       30.08S
6HR MIN TEMP:  75; 6HR MAX TEMP:  79; 6HR PCP: TRACE;

BROOKLEY FIELD RAIN      80  78  94 S6        30.08F
6HR MIN TEMP:  75; 6HR MAX TEMP:  79; 6HR PCP:  0.13;

USA CAMPUS*      N/A     75  75 100 CALM      30.07S
DOG RIVER*       N/A     81  79  94 S3        30.07F


CITY           SKY/WX    TMP DP  RH WIND       PRES   REMARKS
MOUNT VERNON*    N/A     70  70 100 CALM      30.08F
SARALAND*      NOT AVBL
BAY MINETTE*   NOT AVBL
LOXLEY*          N/A     73  72  94 E2        30.09S
ROBERTSDALE*     N/A    N/A N/A N/A CALM      30.09R
FAIRHOPE*        N/A     75  75 100 CALM      30.07S
ELBERTA*         N/A     81  70  69 CALM      30.07F
FOLEY*         NOT AVBL
GRAND BAY*       N/A     75  75 100 CALM      30.05F
DAUPHIN ISLND* NOT AVBL
BON SCOUR NWR* NOT AVBL
GULF SHORES    FAIR      83  78  85 SE6       30.07F

$$

ALZ051>060-310700-
INTERIOR SOUTHWEST AND SOUTH CENTRAL ALABAMA

CITY           SKY/WX    TMP DP  RH WIND       PRES   REMARKS
GREENVILLE     NOT AVBL
EVERGREEN      FAIR      76  73  91 CALM      30.11S
6HR MIN TEMP:  76; 6HR MAX TEMP:  86;

CASTLEBERRY*   NOT AVBL
ATMORE*          N/A     73  72  94 CALM      30.11S
DIXIE*         NOT AVBL
ANDALUSIA/OPP  FAIR      79  74  84 SE3       30.11F
6HR MIN TEMP:  79; 6HR MAX TEMP:  88;

ANDALUSIA*     NOT AVBL
FLORALA APT    FAIR      77  74  90 CALM      30.13S
6HR MIN TEMP:  76; 6HR MAX TEMP:  85;

FLORALA*         N/A     75  73  94 CALM      30.09S

$$

FLZ001>006-310700-
WESTERN FLORIDA PANHANDLE

CITY           SKY/WX    TMP DP  RH WIND       PRES   REMARKS
PENSACOLA      FAIR      81  78  91 S9        30.08F
6HR MIN TEMP:  80; 6HR MAX TEMP:  83;

NAS PENSACOLA  FAIR      84  78  82 S10       30.07F HX  95
6HR MIN TEMP:  83; 6HR MAX TEMP:  85;

MILTON         FAIR      77  74  90 CALM      30.09F
6HR MIN TEMP:  77; 6HR MAX TEMP:  84;

WHTNG S FIELD    N/A    N/A N/A N/A MISG      30.09F


CITY           SKY/WX    TMP DP  RH WIND       PRES   REMARKS
WALNUT HILL*   NOT AVBL
JAY*           NOT AVBL
DUKE FIELD     FAIR      76  75  99 CALM      30.10F
CRESTVIEW      FAIR      75  74  96 CALM      30.11F
6HR MIN TEMP:  75; 6HR MAX TEMP:  85;

VALPARAISO     MOCLDY    83  78  84 S7        30.09F
6HR MIN TEMP:  83; 6HR MAX TEMP:  85;

DESTIN         FAIR      86  79  79 S6        30.09F HX  99
6HR MIN TEMP:  86; 6HR MAX TEMP:  87;


$$

MSZ076-079-310700-
INTERIOR SOUTHEAST MISSISSIPPI

CITY           SKY/WX    TMP DP  RH WIND       PRES   REMARKS
LEAKESVILLE*     N/A     72  70  94 E3          N/A
AGRICOLA*      NOT AVBL

$$

MARINE OBSERVATIONS

STATION/POSITION TIME  TEMP    WIND        PRES    WAVE
                       AIR SEA DIR/SP/G            HT/PER
                 (UTC) (F)     (DEG/KT/KT) (MB)    (FT/S)
PASCAGOULA       0600   85     170/ 13/ 14 1017.7F
PETIT BOIS ISLND 0600   85     170/ 12/ 14 1018.2F
GRAND BAY        0500   84     170/ 10     1019.0S
KATRINA CUT      0500   85     170/ 13     1018.6F
CEDAR POINT      0500   83     180/ 12     1018.0S
E DAUPHIN ISLAND 0500   85     160/ 13/ 14 1018.2F
MIDDLE BAY LIGHT 0500   85     170/ 14     1018.3S
USCG MOBILE BAY  0600   79 86   10/  2/  2 1017.3S
STATE DOCKS      0600   79 85              1018.1F
MEAHER PARK      0500   80     100/  4     1018.0F
WEEKS BAY        0500   78                   N/A
FORT MORGAN      0600   84     180/ 14/ 15 1017.8R
12 S ORANGE BCH  0600   85 85  160/ 10/ 12 1018.2F   3/ 6
PENSACOLA BAY    0600   85 85  170/  5/  8 1018.7F
64 S DAUPHIN ISL 0600   85     150/ 12       N/A

$$

SELECTED LOCATIONS ACROSS THE REGION

CITY           SKY/WX    TMP DP  RH WIND       PRES   REMARKS
NEW ORLEANS    MOCLDY    76  73  91 CALM      30.03F
GULFPORT       FAIR      75  73  93 NE3       30.05F
PASCAGOULA AP  FAIR      74  73  97 CALM      30.06F
PASCAGOULA*      N/A     82  81  94 SE7       30.05F HX  95
HATTIESBURG    FAIR      74  73  97 SE3       30.07S
LAUREL         FAIR      73  70  88 CALM      30.08S
MERIDIAN       MOCLDY    72  71  97 CALM      30.08S
JACKSON        FAIR      74  72  93 S9        30.04S
MONTGOMERY     FAIR      74  71  91 CALM      30.12S
TROY           FAIR      75  72  90 CALM      30.13S
KINSTON*       NOT AVBL
GENEVA*          N/A     72  70  94 CALM      30.13F
ASHFORD*       NOT AVBL
DOTHAN         FAIR      75  72  90 CALM      30.16S
PANAMA CITY    FAIR      78  75  90 CALM      30.10F

$$




USA.gov is the U.S. government's official web portal to all federal, state and local government web resources and services.